Lexington Weather

Lexington, Massachusetts, USA

40°F
4/22/2024 7:51am 
  • Lexington Conditions: Clear
  • Temperature: 39.9°F / 4.4°CWarmer 2.9°F than last hour.
  • Dew Point: 28.8°FDecreased 0.1°Fsince last hour.
  • Relative Humidity: 64%Decreased 8.0% since last hour.
  • Wind: Calm, 10-min avg: Calm, gust: 2 mph
  • Barometer: 29.95 inRising 0.02  inHg/hr Rising Slowly
  • Visibility: 10 miles
  • Rain Today: 0.00 in
  •   

Regional Weather Roundup
for Boston, MA

        
000
ASUS41 KBOX 181410
RWRBOX

REGIONAL WEATHER ROUNDUP
NATIONAL WEATHER SERVICE BOSTON/NORTON MA
1000 AM EDT THU APR 18 2024

NOTE:  "FAIR" INDICATES FEW OR NO CLOUDS BELOW 12,000 FEET WITH NO 
SIGNIFICANT WEATHER AND/OR OBSTRUCTIONS TO VISIBILITY.

MAZALL-181500-
EASTERN MASSACHUSETTS
  
CITY           SKY/WX    TMP DP  RH WIND       PRES   REMARKS
BOSTON         CLOUDY    46  38  73 E10       30.18S                  
BEVERLY        CLOUDY    46  34  62 E7        30.18S                  
LAWRENCE       CLOUDY    47  38  71 E8        30.20R                  
BEDFORD        CLOUDY    46  33  60 E13       30.16S                  
NORWOOD        CLOUDY    47  34  60 E8        30.17R                  
MARSHFIELD     CLOUDY    46  37  71 E10G16    30.17S                  
PLYMOUTH       CLOUDY    46  36  68 E10       30.15R                  
TAUNTON        CLOUDY    48  32  53 E8G21     30.15R                  
NEW BEDFORD    CLOUDY    47  33  58 E12G23    30.13S                  
$$

MAZALL-181500-
CAPE COD AND THE ISLANDS
  
CITY           SKY/WX    TMP DP  RH WIND       PRES   REMARKS
FALMOUTH       CLOUDY    45  36  70 SE12G17   30.14S                  
HYANNIS        CLOUDY    46  35  65 E8G17     30.13F                  
CHATHAM        CLOUDY    46  36  68 E12       30.16R                  
PROVINCETOWN   CLOUDY    47  38  71 E13       30.18R                  
NANTUCKET      CLOUDY    46  36  68 E16G28    30.12F                  
MARTHAS VNYRD  CLOUDY    47  37  68 E16G25    30.12S                  
$$
 
MAZALL-181500-
CENTRAL AND WESTERN MASSACHUSETTS
  
CITY           SKY/WX    TMP DP  RH WIND       PRES   REMARKS
WORCESTER      CLOUDY    43  29  57 E15G25    30.12S                  
FITCHBURG      CLOUDY    46  32  58 E8        30.17S                  
ORANGE         CLOUDY    46  32  58 E9G20     30.15R                  
SPRINGFIELD    CLOUDY    46  39  75 NE6       30.11R                  
WESTFIELD      CLOUDY    46  39  76 NE5       30.13S                  
NORTH ADAMS    CLOUDY    47  36  65 E12G20    30.10R                  
PITTSFIELD     CLOUDY    42  34  73 E8G16     30.08R                  
$$
 
RIZALL-181500-
RHODE ISLAND
  
CITY           SKY/WX    TMP DP  RH WIND       PRES   REMARKS
PROVIDENCE     CLOUDY    47  34  60 E10G24    30.14R                  
NEWPORT        CLOUDY    46  33  60 E14G28    30.12R                  
BLOCK ISLAND   LGT RAIN  43  37  79 E18G28    30.10R                  
SMITHFIELD     CLOUDY    45  33  63 E12G20    30.14R                  
WESTERLY       CLOUDY    46  37  71 E13G25    30.10R                  
$$
 
CTZALL-181500-
CONNECTICUT
  
CITY           SKY/WX    TMP DP  RH WIND       PRES   REMARKS
BRADLEY INTL   RAIN      47  41  80 N7        30.12S                  
HARTFORD       LGT RAIN  46  42  86 N6        30.11S                  
PLAINVILLE     LGT RAIN  44  43  99 N6        30.12R FOG              
BRIDGEPORT     LGT RAIN  45  43  93 NE17G23   30.08R FOG              
DANBURY        CLOUDY    44  41  89 E9        30.09R FOG              
GROTON         CLOUDY    48  38  68 E15G29    30.09R                  
NEW HAVEN      CLOUDY    47  41  80 E12G18    30.09R                  
CHESTER        CLOUDY    45  39  81 NE6G13    30.09R                  
MERIDEN        CLOUDY    45  38  76 VRB3      30.11R                  
WILLIMANTIC    CLOUDY    47  34  60 NE10      30.11R                  
OXFORD         LGT RAIN  41  39  93 E9        30.09R                  
$$

MEZ002-015-021-024-NHZ003-005-008-011-012-014-VTZ005-008-181500-
NORTHERN NEW ENGLAND
  
CITY           SKY/WX    TMP DP  RH WIND       PRES   REMARKS
PORTLAND ME    MOSUNNY   47  34  60 E14       30.22F                  
BANGOR ME      MOSUNNY   49  32  52 VRB5      30.24S                  
CONCORD NH     CLOUDY    48  33  56 E10G16    30.18F                  
MANCHESTER NH  CLOUDY    47  38  71 VRB6      30.17S                  
NASHUA NH      CLOUDY    46  41  82 E7        30.19S                  
PORTSMOUTH NH  CLOUDY    48  34  58 E12       30.19S                  
JAFFREY NH     LGT RAIN  42  35  76 MISG      30.15S                  
KEENE NH       LGT RAIN  43  37  79 N6        30.16R                  
BURLINGTON VT  CLOUDY    47  37  68 SE13      30.08R                  
MT. WASHINGTON MOSUNNY   34  19  55 S16         N/A  WCI  23          
$$

NYZ052-076-181500-
EASTERN NEW YORK
  
CITY           SKY/WX    TMP DP  RH WIND       PRES   REMARKS
ALBANY         DRIZZLE   47  41  80 S10       30.11R                  
NEW YORK CITY  DRIZZLE   46  43  89 NE22G32   30.06R FOG              
$$
 
ANZALL-181500-
MARINE OBSERVATIONS
  
STATION/POSITION TIME  TEMP    WIND        PRES    VSBY  WAVE
                       AIR SEA DIR/SP/G                  HT/PER
                 (UTC) (F)     (DEG/KT/KT) (MB)    (MI)  (FT/S)
BOSTON BUOY      1350   45      80/ 12/ 14 1021.5R         2/ 3
BUZZARDS BAY     1300   45      80/ 23/ 26 1019.7F
NANTUCKET SOUND  1350   45 47   90/ 17/ 21 1020.0F         3/ 4
MASS BAY-STELLWA 1204   45 45   90/ 12/ 12 1022.1R  1 7/8  1/ 3
ISLE OF SHOALS   1300   45      90/ 12/ 14 1021.7S
S OF BLOCK IS    1356      45                N/A           7/ 6
$$

......................KEY.........................
  SKY/WX - SKY CONDITION/PRESENT WEATHER
  TMP    - TEMPERATURE IN FAHRENHEIT
  DWPT   - DEWPOINT IN FAHRENHEIT
  RH     - RELATIVE HUMIDITY IN PERCENT
  WIND   - DIRECTION AND SPEED IN MPH
  PRES   - MEAN SEA LEVEL PRESSURE IN INCHES OF HG
  WCI    - WIND CHILL INDEX
  VSB    - VISIBILITY IN MILES
  HX     - HEAT INDEX
  TC     - TEMPERATURE IN CELSIUS
  VRB    - VARIABLE WIND DIRECTION
  N/A    - NOT AVAILABLE
  
      

Other recent Regional Weather Roundups

Mon Apr 22, 7:10am EDT

Mon Apr 22, 6:10am EDT

Mon Apr 22, 5:10am EDT

Mon Apr 22, 4:10am EDT

Mon Apr 22, 3:10am EDT

Mon Apr 22, 2:10am EDT

Mon Apr 22, 1:10am EDT

Mon Apr 22, 12:10am EDT

Sun Apr 21, 11:10pm EDT

Sun Apr 21, 10:10pm EDT

Sun Apr 21, 9:10pm EDT

Sun Apr 21, 8:10pm EDT

Sun Apr 21, 7:10pm EDT

Sun Apr 21, 6:10pm EDT

Sun Apr 21, 5:10pm EDT

Sun Apr 21, 4:10pm EDT

Sun Apr 21, 3:10pm EDT

Sun Apr 21, 2:10pm EDT

Sun Apr 21, 1:10pm EDT

Sun Apr 21, 12:10pm EDT

Sun Apr 21, 11:10am EDT

Sun Apr 21, 10:10am EDT

Sun Apr 21, 9:10am EDT

Sun Apr 21, 8:10am EDT

Sun Apr 21, 7:10am EDT

Sun Apr 21, 6:10am EDT

Sun Apr 21, 5:10am EDT

Sun Apr 21, 4:10am EDT

Sun Apr 21, 3:10am EDT

Sun Apr 21, 2:10am EDT

Sun Apr 21, 1:10am EDT

Sun Apr 21, 12:10am EDT

Sat Apr 20, 11:10pm EDT

Sat Apr 20, 10:10pm EDT

Sat Apr 20, 9:10pm EDT

Sat Apr 20, 8:10pm EDT

Sat Apr 20, 7:10pm EDT

Sat Apr 20, 6:10pm EDT

Sat Apr 20, 5:10pm EDT

Sat Apr 20, 4:10pm EDT

Sat Apr 20, 3:10pm EDT

Sat Apr 20, 2:10pm EDT

Sat Apr 20, 1:10pm EDT

Sat Apr 20, 12:10pm EDT

Sat Apr 20, 11:10am EDT

Sat Apr 20, 10:10am EDT

Sat Apr 20, 9:10am EDT

Sat Apr 20, 8:10am EDT

Sat Apr 20, 7:10am EDT

Sat Apr 20, 6:10am EDT

Sat Apr 20, 5:10am EDT

Sat Apr 20, 4:10am EDT

Sat Apr 20, 3:10am EDT

Sat Apr 20, 2:10am EDT

Sat Apr 20, 1:10am EDT

Sat Apr 20, 12:10am EDT

Fri Apr 19, 11:10pm EDT

Fri Apr 19, 10:10pm EDT

Fri Apr 19, 9:10pm EDT

Fri Apr 19, 8:10pm EDT

Fri Apr 19, 7:10pm EDT

Fri Apr 19, 6:10pm EDT

Fri Apr 19, 5:10pm EDT

Fri Apr 19, 4:10pm EDT

Fri Apr 19, 3:10pm EDT

Fri Apr 19, 2:10pm EDT

Fri Apr 19, 1:10pm EDT

Fri Apr 19, 12:10pm EDT

Fri Apr 19, 11:10am EDT

Fri Apr 19, 10:10am EDT

Fri Apr 19, 9:10am EDT

Fri Apr 19, 8:10am EDT

Fri Apr 19, 7:10am EDT

Fri Apr 19, 6:10am EDT

Fri Apr 19, 5:10am EDT

Fri Apr 19, 4:10am EDT

Fri Apr 19, 3:10am EDT

Fri Apr 19, 2:10am EDT

Fri Apr 19, 1:10am EDT

Fri Apr 19, 12:10am EDT

Thu Apr 18, 11:10pm EDT

Thu Apr 18, 10:10pm EDT

Thu Apr 18, 9:10pm EDT

Thu Apr 18, 8:10pm EDT

Thu Apr 18, 7:10pm EDT

Thu Apr 18, 6:10pm EDT

Thu Apr 18, 5:10pm EDT

Thu Apr 18, 4:10pm EDT

Thu Apr 18, 3:10pm EDT

Thu Apr 18, 2:10pm EDT

Thu Apr 18, 1:10pm EDT

Thu Apr 18, 12:10pm EDT

Thu Apr 18, 11:10am EDT

Thu Apr 18, 9:10am EDT

Thu Apr 18, 8:10am EDT

Thu Apr 18, 7:10am EDT

Thu Apr 18, 6:10am EDT

Thu Apr 18, 5:10am EDT

Thu Apr 18, 4:10am EDT

Thu Apr 18, 3:10am EDT

Thu Apr 18, 2:10am EDT

Thu Apr 18, 1:10am EDT

Thu Apr 18, 12:10am EDT

Wed Apr 17, 11:10pm EDT

Wed Apr 17, 10:10pm EDT

Wed Apr 17, 9:10pm EDT

Wed Apr 17, 8:10pm EDT

Wed Apr 17, 7:10pm EDT

Wed Apr 17, 6:10pm EDT

Wed Apr 17, 5:10pm EDT

Wed Apr 17, 4:10pm EDT

Wed Apr 17, 3:10pm EDT

Wed Apr 17, 2:10pm EDT

Wed Apr 17, 1:10pm EDT

Wed Apr 17, 12:10pm EDT

Wed Apr 17, 11:10am EDT

Wed Apr 17, 10:10am EDT

Wed Apr 17, 9:10am EDT

Wed Apr 17, 8:10am EDT

Wed Apr 17, 7:10am EDT

Wed Apr 17, 6:10am EDT

Wed Apr 17, 5:10am EDT

Wed Apr 17, 4:10am EDT

Wed Apr 17, 3:10am EDT

Wed Apr 17, 2:10am EDT

Wed Apr 17, 1:10am EDT

Wed Apr 17, 12:10am EDT

Tue Apr 16, 11:10pm EDT

Tue Apr 16, 10:10pm EDT

Tue Apr 16, 9:10pm EDT

Tue Apr 16, 8:10pm EDT

Tue Apr 16, 7:10pm EDT

Tue Apr 16, 6:10pm EDT

Tue Apr 16, 5:10pm EDT

Tue Apr 16, 4:10pm EDT

Tue Apr 16, 3:10pm EDT

Tue Apr 16, 2:10pm EDT

Tue Apr 16, 1:10pm EDT

Tue Apr 16, 12:10pm EDT

Tue Apr 16, 11:10am EDT

Tue Apr 16, 10:10am EDT

Tue Apr 16, 9:10am EDT

Tue Apr 16, 8:10am EDT

Tue Apr 16, 7:10am EDT

Tue Apr 16, 6:10am EDT

Tue Apr 16, 5:10am EDT

Tue Apr 16, 4:10am EDT

Tue Apr 16, 3:10am EDT

Tue Apr 16, 2:10am EDT

Tue Apr 16, 1:10am EDT

Tue Apr 16, 12:10am EDT

Mon Apr 15, 11:10pm EDT

Mon Apr 15, 10:10pm EDT

Mon Apr 15, 9:10pm EDT

Mon Apr 15, 8:10pm EDT

Mon Apr 15, 7:10pm EDT

Mon Apr 15, 6:10pm EDT

Mon Apr 15, 5:10pm EDT

Mon Apr 15, 4:10pm EDT

Mon Apr 15, 3:10pm EDT

Mon Apr 15, 2:10pm EDT

Mon Apr 15, 1:10pm EDT

Mon Apr 15, 12:10pm EDT

Mon Apr 15, 11:10am EDT

Mon Apr 15, 10:10am EDT

Mon Apr 15, 9:10am EDT

Mon Apr 15, 8:10am EDT